Location: Saint Louis
(38.6272°N, 90.1978°W)
Time: 03:22:03
(UTC-05:00)

ISS - Pass Details

Date: 21 March 2013
Orbit: 401 x 404 km, 51.6° (Epoch: 26 July)

Event Time Altitude Azimuth Distance (km) Brightness Sun altitude
Exits shadow 04:39:02 19° 35° (NE) 1,098 -0.6 -27.9°
Drops below altitude 10° 04:40:10 10° 42° (NE) 1,529 0.4 -27.7°
Enters shadow 05:35:52 -70° 237° (WSW) 12,386 4.1 -17.5°
